When you browse on this site, cookies collect data to enhance your experience and personalize the content and advertising you see.
Visit our Privacy Policy to learn more. By continuing to use the site, you agree to this use of cookies and data.
  • In Sweden
  • List of Countries
  • For 7 days
  • Water Temperature
  • Satellite Maps
  • Weather Map
  • Weather Widgets
  • user-avatar
    Login

    Hourly Weather Bangor

    Today, 26 March, Tuesday

    Time Temperature Precipitation Wind Pressure Humidity
    00:00 +4°C° 0 mm 1 mps 759 mmHg 87%
    01:00 +4°C° 0 mm 1 mps 759 mmHg 87%
    02:00 +3°C° 0 mm 1 mps 759 mmHg 87%
    03:00 +3°C° 0 mm 1 mps 758 mmHg 87%
    04:00 +3°C° 0 mm 1 mps 758 mmHg 87%
    05:00 +3°C° 0 mm 1 mps 758 mmHg 87%
    06:00 +3°C° 0 mm 1 mps 758 mmHg 87%
    07:00 +5°C° 0 mm 1 mps 759 mmHg 81%
    08:00 +6°C° 0 mm 1 mps 759 mmHg 76%
    09:00 +8°C° 0 mm 1 mps 759 mmHg 70%
    10:00 +10°C° 0 mm 1 mps 759 mmHg 67%
    11:00 +11°C° 0 mm 1 mps 759 mmHg 64%
    12:00 +12°C° 0 mm 2 mps 759 mmHg 60%
    13:00 +13°C° 0 mm 2 mps 758 mmHg 62%
    14:00 +12°C° 0 mm 3 mps 758 mmHg 63%
    15:00 +13°C° 0 mm 3 mps 758 mmHg 64%
    16:00 +11°C° 0 mm 3 mps 758 mmHg 69%
    17:00 +10°C° 0 mm 3 mps 758 mmHg 75%
    18:00 +9°C° 0 mm 3 mps 758 mmHg 81%
    19:00 +7°C° 0 mm 3 mps 758 mmHg 83%
    20:00 +5°C° 0 mm 3 mps 758 mmHg 86%
    21:00 +4°C° 0 mm 2 mps 758 mmHg 88%
    22:00 +4°C° 0 mm 2 mps 758 mmHg 88%
    23:00 +4°C° 0 mm 2 mps 759 mmHg 88%

    Tomorrow, 27 March, Wednesday

    Time Temperature Precipitation Wind Pressure Humidity
    00:00 +4°C° 0 mm 2 mps 759 mmHg 87%
    01:00 +4°C° 0 mm 2 mps 759 mmHg 88%
    02:00 +4°C° 0 mm 1 mps 758 mmHg 89%
    03:00 +4°C° 0 mm 1 mps 758 mmHg 89%
    04:00 +4°C° 0 mm 1 mps 758 mmHg 90%
    05:00 +4°C° 0 mm 1 mps 758 mmHg 90%
    06:00 +4°C° 0 mm 1 mps 758 mmHg 91%
    07:00 +6°C° 0 mm 1 mps 759 mmHg 87%
    08:00 +8°C° 0 mm 1 mps 759 mmHg 83%
    09:00 +10°C° 0 mm 1 mps 759 mmHg 78%
    10:00 +11°C° 0 mm 1 mps 759 mmHg 74%
    11:00 +12°C° 0 mm 2 mps 760 mmHg 69%
    12:00 +14°C° 0 mm 2 mps 760 mmHg 64%
    13:00 +14°C° 0 mm 2 mps 760 mmHg 64%
    14:00 +14°C° 0 mm 3 mps 759 mmHg 64%
    15:00 +14°C° 0 mm 3 mps 759 mmHg 64%
    16:00 +13°C° 0 mm 3 mps 759 mmHg 69%
    17:00 +12°C° 0 mm 3 mps 759 mmHg 75%
    18:00 +10°C° 0 mm 3 mps 759 mmHg 80%
    19:00 +9°C° 0 mm 3 mps 759 mmHg 82%
    20:00 +7°C° 0 mm 2 mps 760 mmHg 83%
    21:00 +6°C° 0 mm 2 mps 760 mmHg 85%
    22:00 +5°C° 0 mm 2 mps 760 mmHg 83%
    23:00 +5°C° 0 mm 2 mps 760 mmHg 82%

    Day after tomorrow, 28 March, Thursday

    Time Temperature Precipitation Wind Pressure Humidity
    00:00 +4°C° 0 mm 2 mps 760 mmHg 80%
    01:00 +4°C° 0 mm 2 mps 760 mmHg 82%
    02:00 +5°C° 0 mm 1 mps 760 mmHg 84%
    03:00 +4°C° 0 mm 1 mps 760 mmHg 85%
    04:00 +4°C° 0 mm 1 mps 760 mmHg 86%
    05:00 +4°C° 0 mm 1 mps 760 mmHg 87%
    06:00 +4°C° 0 mm 1 mps 760 mmHg 87%
    07:00 +6°C° 0 mm 1 mps 761 mmHg 82%
    08:00 +7°C° 0 mm 0 mps 761 mmHg 77%
    09:00 +9°C° 0 mm 0 mps 761 mmHg 72%
    10:00 +10°C° 0 mm 0 mps 761 mmHg 69%
    11:00 +12°C° 0 mm 0 mps 761 mmHg 65%
    12:00 +13°C° 0 mm 0 mps 761 mmHg 61%
    13:00 +14°C° 0 mm 0 mps 761 mmHg 60%
    14:00 +14°C° 0 mm 0 mps 761 mmHg 58%
    15:00 +14°C° 0 mm 0 mps 760 mmHg 57%
    16:00 +14°C° 0 mm 1 mps 760 mmHg 62%
    17:00 +13°C° 0 mm 1 mps 760 mmHg 68%
    18:00 +12°C° 0 mm 1 mps 760 mmHg 74%
    19:00 +11°C° 0 mm 1 mps 760 mmHg 78%
    20:00 +10°C° 0 mm 1 mps 760 mmHg 82%
    21:00 +7°C° 0 mm 0 mps 760 mmHg 86%
    22:00 +7°C° 0 mm 0 mps 760 mmHg 86%
    23:00 +8°C° 0 mm 1 mps 759 mmHg 87%

    29 March, Friday

    Time Temperature Precipitation Wind Pressure Humidity
    00:00 +7°C° 0 mm 1 mps 759 mmHg 87%
    01:00 +7°C° 0 mm 1 mps 759 mmHg 88%
    02:00 +7°C° 0 mm 1 mps 759 mmHg 89%
    03:00 +6°C° 0 mm 1 mps 758 mmHg 90%
    04:00 +6°C° 0 mm 1 mps 758 mmHg 90%
    05:00 +6°C° 0 mm 1 mps 758 mmHg 91%
    06:00 +5°C° 0 mm 1 mps 758 mmHg 91%
    07:00 +7°C° 0 mm 1 mps 758 mmHg 87%
    08:00 +9°C° 0 mm 1 mps 758 mmHg 83%
    09:00 +10°C° 0 mm 2 mps 758 mmHg 79%
    10:00 +12°C° 0 mm 2 mps 758 mmHg 74%
    11:00 +13°C° 0 mm 2 mps 757 mmHg 70%
    12:00 +14°C° 0 mm 2 mps 757 mmHg 66%
    13:00 +15°C° 0 mm 2 mps 757 mmHg 65%
    14:00 +15°C° 0 mm 2 mps 756 mmHg 65%
    15:00 +15°C° 0 mm 2 mps 756 mmHg 64%
    16:00 +15°C° 0 mm 2 mps 755 mmHg 70%
    17:00 +14°C° 0 mm 1 mps 755 mmHg 75%
    18:00 +13°C° 0 mm 1 mps 754 mmHg 80%
    19:00 +12°C° 0 mm 1 mps 754 mmHg 83%
    20:00 +10°C° 0 mm 1 mps 754 mmHg 85%
    21:00 +9°C° 0 mm 1 mps 754 mmHg 88%
    22:00 +9°C° 0 mm 1 mps 754 mmHg 89%
    23:00 +8°C° 0 mm 1 mps 754 mmHg 91%

    30 March, Saturday

    Time Temperature Precipitation Wind Pressure Humidity
    00:00 +7°C° 0 mm 0 mps 754 mmHg 92%
    01:00 +7°C° 0 mm 1 mps 753 mmHg 92%
    02:00 +7°C° 0 mm 1 mps 753 mmHg 92%
    03:00 +7°C° 0 mm 1 mps 752 mmHg 92%
    04:00 +6°C° 0 mm 1 mps 752 mmHg 92%
    05:00 +6°C° 0 mm 1 mps 752 mmHg 92%
    06:00 +6°C° 0 mm 1 mps 752 mmHg 93%
    07:00 +8°C° 0 mm 1 mps 752 mmHg 88%
    08:00 +9°C° 0 mm 1 mps 752 mmHg 84%
    09:00 +11°C° 0 mm 1 mps 752 mmHg 80%
    10:00 +12°C° 0 mm 2 mps 752 mmHg 76%
    11:00 +14°C° 0 mm 2 mps 752 mmHg 72%
    12:00 +15°C° 0 mm 2 mps 752 mmHg 68%
    13:00 +15°C° 0 mm 2 mps 751 mmHg 66%
    14:00 +15°C° 0 mm 2 mps 751 mmHg 64%
    15:00 +16°C° 0 mm 1 mps 750 mmHg 62%
    16:00 +15°C° 0.1 mm 2 mps 750 mmHg 68%
    17:00 +14°C° 0.1 mm 2 mps 750 mmHg 73%
    18:00 +13°C° 0.1 mm 2 mps 750 mmHg 78%
    19:00 +11°C° 0.1 mm 3 mps 750 mmHg 82%
    20:00 +8°C° 0.1 mm 4 mps 751 mmHg 86%
    21:00 +7°C° 0.1 mm 5 mps 751 mmHg 90%
    22:00 +7°C° 0 mm 6 mps 751 mmHg 90%
    23:00 +5°C° 0 mm 7 mps 752 mmHg 90%

    31 March, Sunday

    Time Temperature Precipitation Wind Pressure Humidity
    00:00 +5°C° 0 mm 7 mps 752 mmHg 89%
    01:00 +5°C° 0 mm 8 mps 752 mmHg 89%
    02:00 +5°C° 0 mm 8 mps 752 mmHg 88%
    03:00 +5°C° 0 mm 8 mps 753 mmHg 87%
    04:00 +4°C° 0 mm 8 mps 753 mmHg 87%
    05:00 +2°C° 0 mm 8 mps 753 mmHg 87%
    06:00 +2°C° 0 mm 9 mps 754 mmHg 86%
    07:00 +2°C° 0 mm 9 mps 754 mmHg 83%
    08:00 +2°C° 0 mm 9 mps 755 mmHg 80%
    09:00 +3°C° 0 mm 9 mps 755 mmHg 77%
    10:00 +5°C° 0 mm 9 mps 756 mmHg 74%
    11:00 +5°C° 0 mm 8 mps 756 mmHg 70%
    12:00 +6°C° 0 mm 8 mps 756 mmHg 67%
    13:00 +6°C° 0 mm 8 mps 756 mmHg 67%
    14:00 +5°C° 0 mm 7 mps 756 mmHg 68%
    15:00 +5°C° 0 mm 7 mps 756 mmHg 68%
    16:00 +5°C° 0 mm 7 mps 756 mmHg 68%
    17:00 +4°C° 0 mm 7 mps 756 mmHg 67%
    18:00 +4°C° 0 mm 6 mps 756 mmHg 67%
    19:00 +3°C° 0 mm 6 mps 756 mmHg 69%
    20:00 +1°C° 0 mm 6 mps 757 mmHg 71%
    21:00 -1°C° 0 mm 6 mps 757 mmHg 73%
    22:00 -1°C° 0 mm 5 mps 757 mmHg 76%
    23:00 -1°C° 0 mm 5 mps 757 mmHg 79%
    Show more